STARLINK-11080, 60727

Orbit data source: Space-Track

STARLINK-11080, 60727 is a payload satellite owned by SpaceX/Seattle (US) in LEO that was launched on Wed, 28 Aug 2024 UTC via an FALCON 9 launch vehicle from the Air Force Eastern Test Range (AFETR). Payload-class satellites include a variety of spacecraft equipped with specific instruments for various scientific and technological missions. These include communications satellites like Starlink; space stations such as the ISS; scientific satellites like the Hubble; Earth observation satellites from companies like Planet Labs, Umbra, and HawkEye 360; GPS; miniature CubeSats for education and research; and military/defense satellites.

Loading next visibility...
Identifier
60727, 2024-152H
Orbit
LEO
Last TLE update
19 hours ago
Origin
Manufacturer
SpaceX/Seattle
Mission
Operational Commercial Communications
Bus & Motor
STARLINK V2M, Unknown motor
Mass
730 kg wet, ~700 kg dry
Launch date (UTC)
2024-08-28 (8 months ago)
Launch vehicle
FALCON 9
Launch site
Air Force Eastern Test Range (AFETR)
Object type
Payload
Rocket body
Debris
Shape & HBR
Box + 2 Pan, 29 m
Radar Cross Section
36.964 m², Large (>1 m²)

Expand to show TLE details & history

TLE from 19 hours ago
0 STARLINK-11080
1 60727U 24152H   25128.50660786 -.00002642  00000-0 -16977-4 0  9992
2 60727  53.1580 180.6202 0000903  87.0208 273.0913 15.69683032 41038
Epoch: 2025-05-08T12:09Z
Definitive object data (Epoch: 2025-05-08T12:09:30.919Z)
Latitude
-0.00002°
Longitude
131.66524°
Altitude
360.686 km
Speed
7.694 km/s
True Right ascension
12h 02m 28s
True Declination
0° 00' 00"
Sunlit
Object was in full shadow at TLE epoch
Visualization TLE readout
Latitude
38.28763°
Longitude
163.87827°
Altitude
362.566 km
Speed
7.697 km/s
Apparent Right ascension
10h 07m 25s
Apparent Declination
4° 56' 25"
Sunlit
Object is in full shadow
Visualization observer readout
Local Sidereal Time
14:51:27
Azimuth
261.429° W
Elevation
17.694°
Doppler factor
1
Orbital elements
Apogee altitude
360.673 km
Perigee altitude
359.456 km
Semi-major axis
6,738.202 km
Eccentricity
0.0000903
Inclination
53.158°
RAAN
180.6202°
Arg. of periapsis
87.0208°
True anomaly
273.08097°
Mean anomaly
273.0913°
Eccentric anomaly
273.08613°
Mean motion
3.92398 °/min
BSTAR
-0.000016977
Orbital period
91.74 mins
Loading maneuver chart data...
Loading SW <> Apogee altitude chart data...
Loading historical data...
Loading historical data...
Loading historical data...
Loading historical data...
Loading historical data...
Loading historical data...
Loading historical data...

STARLINK-11080 Visibility forecast

Observer location: undefined°, undefined°

Span
Click to sort rows by Start time (UTC) header in descending order
Start Az.
Max El. time (UTC)
Max El. Az.
Max El.
End time (UTC)
End Az.
4 mins2025-05-09 06:42:35.006Z260.792° W2025-05-09 06:44:35.006Z331.139° NNW32.481°2025-05-09 06:46:35.006Z31.338° NE
4 mins2025-05-09 13:07:35.006Z298.548° NW2025-05-09 13:09:35.006Z175.901° S39.206°2025-05-09 13:11:35.006Z141.88° SSE
4 mins2025-05-10 05:36:35.006Z212.355° SW2025-05-10 05:38:35.006Z87.156° E38.019°2025-05-10 05:40:35.006Z57.011° ENE
|